EW4221 Weather Reports


Display with metric or nautical units.
time (UTC)temp
F
wind
direction
speed
MPH
gust
MPH
rain 1hr
in
rain 24hr
in
rain mn
in
humidity
%
barometer
mb
20260903060022 65 248 3.0 19.0 0.06 1.08 0.15 97 1012.6
20260903054517 65 186 4.0 8.0 0.07 1.06 0.13 97 1012.7
20260903053016 65 163 3.0 8.0 0.06 1.03 0.10 97 1013.5
20260903051515 65 207 1.0 7.0 0.08 1.02 0.09 97 1013.3
20260903050021 65 194 3.0 8.0 0.08 1.02 0.09 97 1013.5
20260903044518 65 241 5.0 13.0 0.08 0.99 0.06 97 1014.0
20260903043012 65 175 1.0 4.0 0.11 0.97 0.04 96 1013.9
20260903041512 65 181 2.0 5.0 0.15 0.94 0.01 96 1013.8
20260903040008 65 194 3.0 10.0 0.18 0.93 0.00 96 1014.4
20260903034504 65 167 4.0 14.0 0.19 0.92 0.91 96 1015.8
20260903033002 65 238 3.0 5.0 0.15 0.86 0.85 96 1016.1
20260903031501 65 193 4.0 12.0 0.10 0.80 0.79 96 1014.9
20260903030001 65 189 3.0 7.0 0.09 0.76 0.75 96 1014.4
20260903024502 65 205 0.0 3.0 0.11 0.73 0.72 96 1014.1
20260903023103 65 182 0.0 4.0 0.28 0.71 0.70 95 1014.0
20260903021600 66 159 3.0 7.0 0.35 0.70 0.69 95 1015.2
20260903020059 66 192 4.0 11.0 0.33 0.67 0.66 95 1016.5
20260903014558 67 190 4.0 10.0 0.54 0.62 0.61 93 1016.2
20260903013058 69 355 12.0 30.0 0.34 0.41 0.40 91 1017.1
20260903010155 71 217 6.0 14.0 0.27 0.34 0.33 93 1014.0
20260903004557 72 247 2.0 10.0 0.01 0.08 0.07 92 1014.2
20260903003052 73 161 4.0 10.0 0.00 0.07 0.06 91 1013.1
20260903001602 73 163 3.0 12.0 0.00 0.07 0.06 90 1012.8
20260903000050 73 151 4.0 10.0 0.00 0.07 0.06 89 1013.1
20260902234549 74 139 3.0 10.0 0.00 0.08 0.06 88 1013.2
20260902233049 74 150 4.0 15.0 0.00 0.08 0.06 87 1013.4
20260902231547 75 169 5.0 9.0 0.00 0.08 0.06 86 1013.1
20260902230049 75 163 4.0 9.0 0.00 0.08 0.06 85 1012.9
20260902224553 76 153 4.0 12.0 0.00 0.08 0.06 84 1012.7
20260902223045 76 194 3.0 10.0 0.00 0.08 0.06 84 1013.0
20260902221549 77 138 5.0 12.0 0.00 0.08 0.06 82 1012.8
20260902220051 78 116 4.0 12.0 0.00 0.08 0.06 82 1012.8
20260902214540 79 158 4.0 10.0 0.00 0.09 0.06 81 1013.1
20260902213046 79 204 3.0 7.0 0.00 0.09 0.06 80 1013.3
20260902211537 78 151 3.0 8.0 0.00 0.09 0.06 80 1013.5
20260902210035 78 153 2.0 9.0 0.00 0.09 0.06 83 1013.6
20260902204533 78 167 3.0 8.0 0.00 0.09 0.06 84 1013.7
20260902203032 77 199 4.0 12.0 0.00 0.09 0.06 85 1014.2
20260902201530 77 211 4.0 13.0 0.00 0.09 0.06 86 1014.1
20260902200030 76 176 6.0 13.0 0.00 0.09 0.06 86 1013.9
20260902194535 76 211 6.0 13.0 0.00 0.09 0.06 89 1013.9
20260902193027 75 161 3.0 10.0 0.00 0.09 0.06 90 1013.7
20260902191523 75 182 2.0 10.0 0.00 0.09 0.06 90 1014.3
20260902190033 76 157 4.0 9.0 0.00 0.09 0.06 88 1014.9
20260902184522 77 231 7.0 12.0 0.00 0.09 0.06 86 1014.9
20260902183022 78 188 4.0 12.0 0.00 0.09 0.06 85 1014.8
20260902181518 77 110 2.0 5.0 0.00 0.09 0.06 88 1014.7
20260902180028 77 180 1.0 7.0 0.00 0.09 0.06 88 1014.6
20260902174519 77 142 4.0 9.0 0.00 0.09 0.06 88 1014.7
20260902173015 77 155 3.0 9.0 0.00 0.09 0.06 88 1014.9
20260902171512 76 209 5.0 12.0 0.00 0.09 0.06 90 1015.0
20260902170010 76 215 3.0 8.0 0.00 0.09 0.06 90 1015.2
20260902164506 75 244 3.0 7.0 0.00 0.09 0.06 93 1015.4
20260902163004 74 185 4.0 7.0 0.00 0.09 0.06 93 1015.4
20260902161506 73 192 3.0 7.0 0.00 0.09 0.06 96 1015.6
20260902160059 72 211 2.0 5.0 0.00 0.09 0.06 96 1015.5
20260902154555 71 156 3.0 6.0 0.00 0.09 0.06 96 1015.5
20260902153055 71 114 3.0 7.0 0.01 0.09 0.06 97 1015.6
20260902151553 71 172 3.0 9.0 0.01 0.09 0.06 97 1015.3
20260902150051 70 167 4.0 7.0 0.02 0.09 0.06 97 1015.3
20260902144547 69 207 2.0 5.0 0.05 0.09 0.06 97 1015.8
20260902143046 69 185 1.0 4.0 0.05 0.08 0.05 97 1016.1
20260902141550 69 223 3.0 7.0 0.04 0.07 0.04 97 1015.5
20260902140044 68 205 3.0 9.0 0.04 0.07 0.04 96 1015.6
20260902134548 68 199 4.0 7.0 0.01 0.04 0.01 96 1016.4
20260902133042 68 216 2.0 9.0 0.00 0.03 0.00 96 1016.6
20260902131538 68 236 3.0 11.0 0.00 0.03 0.00 96 1015.9
20260902130039 68 192 2.0 9.0 0.00 0.03 0.00 96 1015.8
20260902124538 68 206 3.0 8.0 0.00 0.03 0.00 96 1015.7
20260902123034 68 176 4.0 9.0 0.00 0.03 0.00 97 1015.3
20260902121533 68 194 3.0 7.0 0.00 0.03 0.00 97 1015.2
20260902120029 67 220 0.0 3.0 0.00 0.03 0.00 98 1015.0
20260902114527 67 189 1.0 3.0 0.00 0.04 0.00 97 1014.7
20260902113023 67 202 1.0 4.0 0.00 0.04 0.00 97 1014.8
20260902111520 66 179 1.0 3.0 0.00 0.04 0.00 97 1014.7
20260902110018 66 196 0.0 0.0 0.00 0.04 0.00 97 1014.4
20260902104518 66 134 0.0 0.0 0.00 0.07 0.00 97 1014.5
20260902103013 66 35 0.0 0.0 0.00 0.07 0.00 97 1015.0
20260902101513 67 12 0.0 0.0 0.00 0.07 0.00 97 1015.0
20260902100015 67 167 0.0 0.0 0.00 0.07 0.00 97 1015.0
20260902094511 67 167 0.0 0.0 0.00 0.07 0.00 97 1015.1
20260902093011 67 192 0.0 0.0 0.00 0.07 0.00 97 1015.0
20260902091511 66 192 0.0 0.0 0.00 0.07 0.00 97 1014.9
20260902090009 65 192 0.0 0.0 0.00 0.07 0.00 97 1014.7
20260902084516 65 192 0.0 0.0 0.00 0.07 0.00 97 1014.9
20260902083011 65 192 0.0 0.0 0.00 0.07 0.00 96 1014.9
20260902081507 66 192 0.0 0.0 0.00 0.07 0.00 96 1014.9
20260902080008 67 192 0.0 1.0 0.00 0.07 0.00 97 1014.7
20260902074505 67 192 2.0 4.0 0.00 0.08 0.00 97 1014.8
20260902073004 67 167 0.0 2.0 0.00 0.08 0.00 97 1014.8
20260902071502 67 167 0.0 1.0 0.00 0.08 0.00 97 1014.8
20260902070100 66 167 1.0 2.0 0.00 0.08 0.00 97 1015.0
20260902064559 66 211 0.0 2.0 0.00 0.08 0.00 97 1015.1
20260902063114 66 213 0.0 2.0 0.00 0.08 0.00 97 1015.0
20260902061557 66 227 1.0 3.0 0.00 0.08 0.00 97 1015.2